TimeAEST,TemperatureF,Dew PointF,Humidity,Sea Level PressureIn,VisibilityMPH,Wind Direction,Wind SpeedMPH,Gust SpeedMPH,PrecipitationIn,Events,Conditions,WindDirDegrees,DateUTC
12:00 AM,77,72,82,29.83,,SE,8.1,,,,,140,2012-12-24 14:00:00
12:00 AM,77.0,73.4,89,29.83,6.2,SE,8.1,-,N/A,,Mostly Cloudy,140,2012-12-24 14:00:00
12:30 AM,77.0,73.4,89,29.80,6.2,SE,10.4,-,N/A,,Mostly Cloudy,140,2012-12-24 14:30:00
1:00 AM,77,72,81,29.83,,South,5.8,,,,,190,2012-12-24 15:00:00
1:00 AM,77.0,71.6,83,29.80,6.2,South,5.8,-,N/A,,Mostly Cloudy,190,2012-12-24 15:00:00
1:30 AM,78.8,71.6,78,29.80,6.2,South,8.1,-,N/A,,Mostly Cloudy,170,2012-12-24 15:30:00
2:00 AM,77.0,71.6,83,29.80,6.2,South,10.4,-,N/A,,Mostly Cloudy,180,2012-12-24 16:00:00
2:30 AM,77.0,71.6,83,29.80,6.2,SSE,9.2,-,N/A,,Mostly Cloudy,160,2012-12-24 16:30:00
3:00 AM,78,70,71,29.79,,South,8.1,,,,,170,2012-12-24 17:00:00
3:00 AM,77.0,69.8,78,29.77,6.2,South,8.1,-,N/A,,Mostly Cloudy,170,2012-12-24 17:00:00
3:30 AM,77.0,71.6,83,29.77,6.2,SSE,8.1,-,N/A,,Mostly Cloudy,160,2012-12-24 17:30:00
4:00 AM,78,70,71,29.78,,South,10.4,,,,,180,2012-12-24 18:00:00
4:00 AM,77.0,69.8,78,29.77,6.2,South,10.4,-,N/A,,Mostly Cloudy,180,2012-12-24 18:00:00
4:30 AM,77.0,69.8,78,29.77,6.2,South,10.4,-,N/A,,Mostly Cloudy,180,2012-12-24 18:30:00
5:00 AM,77.0,69.8,78,29.77,6.2,SSE,10.4,-,N/A,,Mostly Cloudy,160,2012-12-24 19:00:00
5:30 AM,77.0,69.8,78,29.77,6.2,SE,9.2,-,N/A,,Mostly Cloudy,140,2012-12-24 19:30:00
6:00 AM,77,70,74,29.81,19,SSE,9.2,,,,Partly Cloudy,150,2012-12-24 20:00:00
6:00 AM,77.0,69.8,78,29.80,6.2,SSE,9.2,-,N/A,,Mostly Cloudy,150,2012-12-24 20:00:00
6:30 AM,77.0,71.6,83,29.80,6.2,SE,9.2,-,N/A,,Mostly Cloudy,140,2012-12-24 20:30:00
7:00 AM,79,71,70,29.83,,SE,10.4,,,,,130,2012-12-24 21:00:00
7:00 AM,78.8,71.6,78,29.83,6.2,SE,10.4,-,N/A,,Scattered Clouds,130,2012-12-24 21:00:00
7:30 AM,80.6,69.8,70,29.83,6.2,South,10.4,-,N/A,,Scattered Clouds,180,2012-12-24 21:30:00
8:00 AM,80.6,71.6,74,29.83,6.2,South,11.5,-,N/A,,Scattered Clouds,170,2012-12-24 22:00:00
8:30 AM,84.2,71.6,66,29.83,6.2,SSE,10.4,-,N/A,,Partly Cloudy,160,2012-12-24 22:30:00
9:00 AM,85,71,54,29.85,19,SSE,10.4,,,,Partly Cloudy,160,2012-12-24 23:00:00
9:00 AM,86.0,71.6,62,29.83,6.2,SSE,10.4,-,N/A,,Partly Cloudy,160,2012-12-24 23:00:00
9:30 AM,87.8,71.6,58,29.83,6.2,South,6.9,-,N/A,,Partly Cloudy,170,2012-12-24 23:30:00
10:00 AM,89,70,44,29.83,,ESE,8.1,,,,,110,2012-12-25 00:00:00
10:00 AM,87.8,69.8,55,29.83,6.2,ESE,8.1,-,N/A,,Partly Cloudy,110,2012-12-25 00:00:00
10:30 AM,89.6,71.6,55,29.80,6.2,ENE,12.7,-,N/A,,Partly Cloudy,60,2012-12-25 00:30:00
11:00 AM,89.6,71.6,55,29.80,6.2,NE,11.5,-,N/A,,Partly Cloudy,40,2012-12-25 01:00:00
11:30 AM,91.4,69.8,49,29.80,6.2,East,13.8,-,N/A,,Partly Cloudy,90,2012-12-25 01:30:00
12:00 PM,92,71,40,29.78,19,East,17.3,,,,Partly Cloudy,80,2012-12-25 02:00:00
12:00 PM,91.4,71.6,52,29.77,6.2,East,17.3,-,N/A,,Partly Cloudy,80,2012-12-25 02:00:00
12:30 PM,93.2,69.8,46,29.77,6.2,ESE,15.0,-,N/A,,Partly Cloudy,110,2012-12-25 02:30:00
1:00 PM,91,70,41,29.78,,ESE,17.3,,,,,110,2012-12-25 03:00:00
1:00 PM,91.4,69.8,49,29.77,6.2,ESE,17.3,-,N/A,,Partly Cloudy,110,2012-12-25 03:00:00
1:30 PM,91.4,69.8,49,29.74,6.2,East,17.3,-,N/A,,Partly Cloudy,90,2012-12-25 03:30:00
2:00 PM,89.6,69.8,52,29.74,6.2,ESE,16.1,-,N/A,,Partly Cloudy,120,2012-12-25 04:00:00
2:30 PM,89.6,69.8,52,29.74,6.2,East,16.1,-,N/A,,Partly Cloudy,90,2012-12-25 04:30:00
3:00 PM,91,70,40,29.75,19,ESE,15.0,,,,Partly Cloudy,110,2012-12-25 05:00:00
3:00 PM,91.4,69.8,49,29.74,6.2,ESE,15.0,-,N/A,,Partly Cloudy,110,2012-12-25 05:00:00
3:30 PM,86.0,71.6,62,29.74,6.2,ESE,18.4,-,N/A,,Scattered Clouds,120,2012-12-25 05:30:00
4:00 PM,85,71,55,29.75,,SE,18.4,,,,,130,2012-12-25 06:00:00
4:00 PM,86.0,71.6,62,29.74,6.2,SE,18.4,-,N/A,,Partly Cloudy,130,2012-12-25 06:00:00
4:30 PM,84.2,71.6,66,29.74,6.2,SE,16.1,-,N/A,,Scattered Clouds,140,2012-12-25 06:30:00
5:00 PM,82.4,71.6,70,29.77,6.2,SE,16.1,-,N/A,,Mostly Cloudy,140,2012-12-25 07:00:00
5:30 PM,82.4,71.6,70,29.77,6.2,ESE,11.5,-,N/A,,Mostly Cloudy,110,2012-12-25 07:30:00
6:00 PM,82,72,65,29.78,,East,9.2,,,,Overcast,100,2012-12-25 08:00:00
6:00 PM,82.4,71.6,70,29.77,6.2,East,9.2,-,N/A,,Mostly Cloudy,100,2012-12-25 08:00:00
6:30 PM,82.4,73.4,74,29.77,6.2,SSE,10.4,-,N/A,,Mostly Cloudy,150,2012-12-25 08:30:00
7:00 PM,82,72,65,29.81,,SE,8.1,,,,,140,2012-12-25 09:00:00
7:00 PM,82.4,71.6,70,29.80,6.2,SE,8.1,-,N/A,Rain,Light Rain Showers,140,2012-12-25 09:00:00
7:30 PM,77.0,75.2,94,29.80,5.0,South,10.4,-,N/A,Rain,Light Rain Showers,170,2012-12-25 09:30:00
8:00 PM,77.0,75.2,94,29.80,6.2,South,8.1,-,N/A,Rain,Light Rain Showers,170,2012-12-25 10:00:00
8:30 PM,77.0,73.4,89,29.80,6.2,SSW,4.6,-,N/A,,Mostly Cloudy,210,2012-12-25 10:30:00
9:00 PM,77,74,87,29.81,,South,5.8,,,,Overcast,190,2012-12-25 11:00:00
9:00 PM,77.0,73.4,89,29.80,6.2,South,5.8,-,N/A,,Scattered Clouds,190,2012-12-25 11:00:00
9:30 PM,77.0,73.4,89,29.80,6.2,SSE,5.8,-,N/A,,Partly Cloudy,150,2012-12-25 11:30:00
10:00 PM,77,74,87,29.82,,SE,9.2,,,,,130,2012-12-25 12:00:00
10:00 PM,77.0,73.4,89,29.80,6.2,SE,9.2,-,N/A,,Mostly Cloudy,130,2012-12-25 12:00:00
10:30 PM,77.0,71.6,83,29.80,6.2,South,6.9,-,N/A,,Scattered Clouds,190,2012-12-25 12:30:00
11:00 PM,77.0,73.4,89,29.80,6.2,SSE,8.1,-,N/A,,Scattered Clouds,150,2012-12-25 13:00:00
11:30 PM,77.0,73.4,89,29.80,6.2,SE,8.1,-,N/A,,Scattered Clouds,140,2012-12-25 13:30:00